Regional Weather Roundup
Issued by NWS Wakefield, VA

Home | Current Version | Previous Version | Text Only | Print | Product List | Glossary On
Versions: 1 2 3 4 5 6 7 8 9 10 11 12 13 14 15 16 17 18 19 20 21 22 23 24 25 26 27 28 29 30 31 32 33 34 35 36 37 38 39 40 41 42 43 44 45 46 47 48 49 50
000
ASUS41 KAKQ 301315
RWRAKQ

REGIONAL WEATHER ROUNDUP
NATIONAL WEATHER SERVICE WAKEFIELD VA
900 AM EDT THU MAR 30 2017

Note: "fair" indicates few or no clouds below 12,000 feet with no
significant weather and/or obstructions to visibility. * = Denotes
station may not report precipitation (e.g., rain,snow,etc.),
thunder or fog.

VAZ042-051-052>054-056-301400-
NORTHERN VIRGINIA

CITY           SKY/WX    TMP DP  RH WIND       PRES   REMARKS
WASH NATIONAL  CLOUDY    47  31  53 NE7       30.27S
DULLES         CLOUDY    46  28  49 E7        30.25S
FORT BELVOIR   CLOUDY    46  28  48 VRB6      30.26S
QUANTICO       PTSUNNY   48  34  58 E8        30.27S
FREDERICKSBRG* CLOUDY    48  33  55 E8        30.25S
STAFFORD*      CLOUDY    47  32  57 E9        30.29F
WARRENTON      CLOUDY    49  28  44 E9        30.24F
CULPEPER*      CLOUDY    48  32  54 CALM      30.25S
MANASSAS*      CLOUDY    48  29  47 SE9       30.26S
LEESBURG*      CLOUDY    45  32  61 E7        30.27R
WINCHESTER     CLOUDY    43  28  56 E9        30.22S
FRONT ROYAL*   CLOUDY    46  32  57 E8        30.20S
LURAY*         CLOUDY    50  36  57 E3        30.19R
$$

VAZ048-049-060>072-079>083-301400-
CENTRAL AND SOUTH CENTRAL VIRGINIA

CITY           SKY/WX    TMP DP  RH WIND       PRES   REMARKS
RICHMOND       CLOUDY    48  36  63 E12       30.23S
CHESTERFIELD*  CLOUDY    48  25  40 E6        30.25R
PETERSBURG*    CLOUDY    48  39  71 E8        30.24R
HANOVER        CLOUDY    48  33  56 NE8       30.25S
TAPPAHANNOCK*  CLOUDY    49  29  46 E6        30.26R
QUINTON*       CLOUDY    46  37  70 NE8       30.24S
CHARLOTTSVILLE CLOUDY    50  34  54 E6        30.22R
GORDONSVILLE*  CLOUDY    48  34  58 CALM      30.23S
ORANGE*        CLOUDY    46  32  57 E7        30.25S
LOUISA*        CLOUDY    52  37  58 E5        30.22R
BUMPASS*       CLOUDY    47  33  58 E6        30.24R
FARMVILLE*     CLOUDY    53  42  66 NE7       30.20S
CREWE*         CLOUDY    50  43  75 E3        30.21S
FORT PICKETT*  CLOUDY    49  37  61 E7        30.22R
CHASE CITY*    CLOUDY    51  49  94 E3        30.19F
CLARKSVILLE*   CLOUDY    52  50  93 NE5       30.19S
SOUTH HILL*    CLOUDY    50  48  93 N5        30.27S
LAWRENCEVILLE* CLOUDY    49  44  82 E5        30.21S
EMPORIA*       PTSUNNY   50  43  76 N8        30.24R
$$

VAZ088>098-301400-
SOUTHEAST VIRGINIA

CITY           SKY/WX    TMP DP  RH WIND       PRES   REMARKS
NORFOLK        PTSUNNY   51  42  71 NE15      30.22R
VIRGINIA BEACH MOSUNNY   50  43  77 NE9       30.22R
NORFOLK NAVAL  PTSUNNY   51  41  68 E17       30.24R
WEST POINT*    PTSUNNY   47  40  76 E5        30.26S
SALUDA*        CLOUDY    47  42  82 NE9       30.25R
NEWPORT NEWS   CLOUDY    49  43  80 NE10      30.23R
LANGLEY AFB    CLOUDY    50  43  77 E14       30.22S
FORT EUSTIS    CLOUDY    49  42  76 E10       30.20R
WILLIAMSBURG*  PTSUNNY   50  45  81 NE5       30.24S
HR EXEC AP*    FAIR      50  45  81 E7        30.21S
FRANKLIN*      CLOUDY    47  44  91 NE5       30.24R
US460-WAKEFLD  CLOUDY    48  44  86 NE3       30.23R
$$

VAZ020-022-025-037-045-301400-
WEST CENTRAL AND SOUTHWEST VIRGINIA

CITY           SKY/WX    TMP DP  RH WIND       PRES   REMARKS
STAUNTON*      CLOUDY    47  32  56 E8        30.20S
WAYNESBORO*    CLOUDY    46  34  62 E7        30.19S
HOT SPRINGS VA CLOUDY    41  36  81 CALM      30.13S
LYNCHBURG      CLOUDY    51  39  63 E8        30.21R
DANVILLE       CLOUDY    54  42  64 E7        30.17R
SOUTH BOSTON*  CLOUDY    53  47  79 E5        30.18S
MARTINSVILLE   RAIN      54  52  95 SE8       30.18R
ROANOKE        CLOUDY    49  44  83 SE10      30.20R
BLACKSBURG     CLOUDY    49  49  98 E9        30.16S FOG
DUBLIN*        CLOUDY    55  53  95 E7        30.13S
MARION*        CLOUDY    57  54  89 E9        30.11F
HILLSVILLE*    CLOUDY    53  53  99 SE6       30.11R
RICHLANDS*     FAIR      60  52  75 SE9G20    30.03S
WISE*          SUNNY     61  48  63 SE10G17   30.01F
ABINGDON*      SUNNY     62  54  76 E8        30.03S
$$

MDZ021>025-VAZ099-100-301400-
SOUTHERN MARYLAND AND THE DELMARVA PENINSULA

CITY           SKY/WX    TMP DP  RH WIND       PRES   REMARKS
PATUXENT RIVER PTSUNNY   46  35  65 NE13      30.27R
BAY BRIDGE APT CLOUDY    45  28  53 E7        30.28S
LEONARDTOWN    CLOUDY    45  30  57 E5        30.28R
DOVER          MOSUNNY   45  30  56 NE13      30.26F
GEORGETOWN     MOSUNNY   46  30  53 E12       30.27S
EASTON         PTSUNNY   45  28  53 E9        30.31S
CAMBRIDGE      MOSUNNY   45  32  61 NE8       30.28R
SALISBURY      PTSUNNY   44  35  70 NE14      30.24S
OCEAN CITY     PTSUNNY   44  35  70 NE9       30.27R
WALLOPS ISLAND PTSUNNY   46  38  73 E15       30.26R
ACCOMACK*      CLOUDY    47  39  76 E10G16    30.24F
$$

NCZ012>017-030>032-301400-
NORTH CENTRAL AND EASTERN NORTH CAROLINA

CITY           SKY/WX    TMP DP  RH WIND       PRES   REMARKS
ROANOKE RAPIDS PTSUNNY   50  48  93 NE5       30.21S
RALEIGH        CLOUDY    55  45  68 E7G20     30.18R
ELIZABETH CITY SUNNY     51  47  86 NE6       30.22R
AHOSKIE*         N/A     47  46  98 CALM      30.22S FOG
EDENTON*       SUNNY     50  47  90 N5        30.23R
CURRITUCK*     MOSUNNY   52  46  80 NE9       30.23R
KILL DEVIL HLS NOT AVBL
MANTEO         SUNNY     52  46  82 NE12      30.21R
CAPE HATTERAS  SUNNY     56  47  71 NE13G20   30.17R
TARBORO*       NOT AVBL
GOLDSBORO      CLOUDY    53  53 100 NE8       30.16S
WASHINGTON     CLOUDY    51  47  87 NE7       30.21R
GREENVILLE     CLOUDY    50  48  93 NE3       30.21R
NEW BERN       SUNNY     53  49  86 NE6       30.18S
WILMINGTON     SUNNY     58  51  78 E7        30.13S
$$

VAZ048-301400-
ELSEWHERE

CITY           SKY/WX    TMP DP  RH WIND       PRES   REMARKS
HARRISBURG PA  CLOUDY    43  26  51 VRB6      30.26F
BALTIMORE      CLOUDY    43  28  55 E9        30.27S
ANNAPOLIS      PTSUNNY   44  29  55 E10       30.27F
ANDREWS AFB    PTSUNNY   45  29  52 E9        30.25S
PHILADELPHIA   CLOUDY    43  23  45 VRB6      30.30R
HENDERSON NC   CLOUDY    49  44  82 E3        30.19S
GREENSBORO     CLOUDY    55  50  83 SE8       30.14S
ROCKY MOUNT    CLOUDY    51  48  89 NE3       30.19S
$$

VAZ100-301400-
MARINE

STATION/POSITION TIME  TEMP    WIND        PRES    WAVE   SWELL
                       AIR SEA DIR/SP/G            HT/PER HT/PER
                 (UTC) (F)     (DEG/KT/KT) (MB)    (FT/S) (FT/S)
CAPE MAY NJ      1230   42 45   50/  6/  8 1025.1R
LEWES DE         1230   44 47   50/  5/ 12 1025.2S
OCEAN-CITY-INLET 1230   43 45   70/ 10/ 14 1025.3R
WACHAPREAGUE VA  1230   47 54   70/ 15/ 18 1023.5S
THOMAS POINT MD  1200   43 47   60/ 11/ 12   N/A
GOOSES REEF MD   1250   45     100/ 10/ 12 1025.7R
COVE POINT MD    1230   43      90/ 11/ 14 1025.4S
SOLOMONS ISLAND  1230   44 49   60/ 11/ 13   N/A
BISHOPS HEAD MD  1230   44 53   60/ 12/ 16 1024.7
PINEY POINT MD   1230           80/  8/ 11   N/A
POTOMAC MD       1250   45      70/ 12/ 16 1023.7R
CAMBRIDGE MD     1230   43 51   60/ 10/ 14 1024.5R
LEWISETTA VA     1230   46 54   90/ 12/ 14 1024.3R
RAPPAHANNOCK LGT 1230           70/ 12/ 13 1024.2F
STINGRAY PT      1240   47      90/ 12/ 14 1024.0R
YORK RVR RNG VA  1230   48      70/ 13/ 14 1023.2R
YORKTOWN VA      1230   48 52   60/ 15/ 17 1023.4R
JAMESTOWN VA     1250   48      50/  6/ 10   N/A
DOMINION TERM VA 1230   51      80/ 12/ 17 1023.3R
KIPTOPEKE VA     1230      51   80/  9/ 13   N/A
CAPE HENRY VA    1230   48      50/ 14/ 16   N/A
WILLOUBY STN VA  1230   50      70/ 16/ 18 1024.0R
S CRANEY ISL VA  1230   51      80/ 12/ 16 1022.9R
CAPE HENRY BUOY  1242      51                N/A     3/11   2/11
CAPE CHARLES BUO 1221      49                N/A     3/10   2/11
OFFSHORE WE BUOY 1221      48                N/A     4/ 9   2/14
64NM E OF VA BCH 1250   51 50   50/ 14/ 16 1022.5R   5/10   3/10
DUCK PIER NC     1230   49 50   30/ 11/ 12 1022.5R
44100 DUCK FRF   1235      51                N/A     5/10   2/11
44056 DUCK FRF   1230      50                N/A     4/ 8   2/15
OREGON INLET NC  1230   50 55   10/  9/ 14 1022.3R
HATTERAS NC      1230   54 60   30/ 10/ 14 1021.2R
DIAMOND SHLS NC  1250   61 77   30/ 16/ 19 1021.0R   7/ 9   5/ 9
CAPE LOOKOUT NC  1200   58      20/ 10/ 13 1020.3R
$$



USA.gov is the U.S. government's official web portal to all federal, state and local government web resources and services.